User: anonymous   Login
Location: Unspecified
(0.0000°N, 0.0000°E)
Time: 02:55:42
(UTC+00:00)
Language:

GALILEO-FM3 - Orbit

View from above orbital plane
View from above orbital plane
View from above satellite
View from above satellite

Ground track
Ground track

The orbit data is extracted from the following two-line orbital elements,

1 38857U 12055A   17232.19360597 -.00000003 +00000-0 +00000-0 0  9993
2 38857 054.9090 190.2605 0004698 252.6251 107.2698 01.70473713030215
Epoch (UTC): 20 August 2017 04:38:47
Eccentricity: 0.0004698
inclination: 54.9090°
perigee height: 23208 km
apogee height: 23236 km
right ascension of ascending node: 190.2605°
argument of perigee: 252.6251°
revolutions per day: 1.70473713
mean anomaly at epoch: 107.2698°
orbit number at epoch: 3021

The dashed part of the orbit path shows where the satellite is in the earth's shadow,  

DLR